Timeline UpdatesTrip UpdatesNews PostsPvt PostsTravel TipsAdmin PostsConv PostsFollowed PostsChat RequestsBlog PostsPNR Posts

Disclaimer
Search
 
 
Sun Sep 21, 2014 03:33:29 ISTHomeTrainsΣChainsAtlasPNRForumGalleryNewsFAQTripsMembersLoginFeedback
No Recent News for this Train
Other Trains in the News **new
Latest...
..
Mon Dec 30, 2013 (12:01AM)
⇐ Return Journey: Train# 19037

19038/Avadh Express

Time-Table HAS CHANGED.
Sep 01 (11:38PM)
Change Departure Station:
Change Arrival Station:
Post a Train Travel TipPost a Train Travel Tip **new
Post a Comment/Question/Picture/VideoPost a Comment/Question/Picture/Video
Pantry/Catering
✓ Pantry Car Avbl
✓ Catering Avbl
Loco/Rake Reversals
LJN/Lucknow Junction NER (6);
RSA - Rake Sharing
19039/19040 Avadh Express.
Rake/Coach Composition
ENGINE-SLR-GEN-GEN-A1-B1-B2-PC-S1-S2-S3-S4-S5-S6-S7-S8-S9-S10-S11-S12-S13-S14-S15-SLR; Total 23 Coaches.
Loco
GKP-LJN: GD WDM-3A LJN-BDTS: BRC WAP-4
News    PNR    Forum    Time-Table    Availability    Fare Chart    Map    Arr/Dep History    Trips    Gallery    ΣChains    X/O    Timeline    
Travel Time: 39h 15m    63 halts    Distance: 1845 km    Avg Speed: 47 km/hr
Type: Mail/Express
Zone: WR/Western
Departs @ 13:20
Platform# 7
 M W FS
Gorakhpur Junction/GKP 
Arrives @ 04:35 +2 nights
Platform# 2
SM W F 
Mumbai Bandra Terminus/BDTS 

63 halts. 291 intermediate Stations between Gorakhpur Junction and Mumbai Bandra Terminus

Show ALL intermediate Stations  Show Old Time-Table

#CodeStation NameX/OArrivesAvgDepartsAvgHaltPFDay#KmSpeedElevZoneAddress
1GKPGorakhpur Junction (10)»  -13:20-710.04084mNERGorakhpur 273001, Uttar Pradesh
2SWASahjanwa (2)  13:45 13:46-13:47 13:48-2m--117.15080mNERGorakhpur - 273209, Uttar Pradesh
3MHHMaghar (3)X  13:58-14:00-2m--125.45183mNERNH 28. Distt- SantKabirNagar- 272173, Uttar Pradesh
4KLDKhalilabad (3)X  14:09 14:10-14:11 14:12-2m--133.96386mNERKhalilabad- 272175, Uttar Pradesh
5BSTBasti (4)  14:40-14:45-5m2163.58090mNERBasti 272001, Uttar Pradesh
6BVBabhnan (2)  15:08-15:10-2m--194.247101mNERDistrict- Basti, Uttar Pradesh
7MSWMaskanwa (2)  15:30-15:32-2m--1109.953103mNERChhapaiya Rd, Uttar Pradesh
8MURMankapur Junction (5)X  15:50 15:48-15:52 15:50-2m21124.067104mNERDistrict Gonda, Uttar Pradesh
9GDGonda Junction (3)X  16:20 16:15-16:35 16:30-15m11151.972110mNERGonda 271001, Uttar Pradesh
10CLJColonelGanj (2)X  16:58 16:54-17:00 16:56-2m--1180.865108mNERGonda, Uttar Pradesh
11JLDJarwal Road (2)X  17:16 17:12-17:18 17:14-2m--1198.054112mNERBehraich, Uttar Pradesh
12BUWBurhwal Junction (3)X  17:40 17:32-17:42 17:34-2m--1214.141119mNERBarabanki, Uttar Pradesh
13BBKBarabanki Junction (4)X  18:14-18:16-2m21241.245122mNRPin-225001, Uttar Pradesh
14GTNRGomti Nagar (3)  18:43-18:45-2m11261.517117mNERLucknow, Uttar Pradesh
15BNZBadshahnagar (2)X  19:00-19:05-5m11265.810116mNERLucknow, Uttar Pradesh
16LCLucknow City (3)  19:28 19:41-19:30 19:43-2m11272.19127mNERLucknow, Uttar Pradesh
17LJNLucknow Junction NER (6)XO20:15-20:55-40m41276.861126mNERLucknow, Uttar Pradesh
18ONUnnao Junction (5)X  21:48-21:50-2m--1330.726129mNRUnnao, Uttar Pradesh
19CNBKanpur Central (10)  22:30-22:35 22:37-5 7m--1348.177128mNCRKANPUR-208 001, Uttar Pradesh
20PHDPhaphund (4)X  23:32 23:42-23:34 23:44-2m--1431.350146mNCRdist. Auraiya, Uttar Pradesh
21BNTBharthana (3)X  00:22 00:28-00:24 00:30-2m--2467.660147mNCRBharthana, Uttar Pradesh
22ETWEtawah (5)X  00:46 00:50-00:48 00:55-2 5m22487.479154mNCRDistt. Etawah, Uttar Pradesh
23SKBShikohabad Junction (4)X  01:26 01:37-01:28 01:42-2 5m32542.843166mNCRDistrict Firozabad, Uttar Pradesh
24FZDFirozabad (4)XO  01:53 02:10-01:55 02:15-2 5m32562.722164mNCRFirozabad, Uttar Pradesh
25TDLTundla Junction (5)  03:05 03:00-03:10 03:05-5m22579.325167mNCRDistt.Firozabad, Uttar Pradesh
26AFAgra Fort (3)  04:00-04:10-10m12602.216170mNCRRakabganj, Uttar Pradesh
27IDHIdgah Agra Junction (3)  04:18-04:20-2m--2604.334168mNCRAgra, Uttar Pradesh
28KLBKiraoli (1)X  05:08 04:58-05:10 05:00-2m12626.034174mNCRKiraoli, Uttar Pradesh
29FTSFatehpur Sikri (2)  05:22-05:24-2m--2638.457176mNCRAgra, Uttar Pradesh
30RBSRupbas (2)  05:39-05:41-2m--2652.626178mNCRJAGNER ROAD, Rajasthan
31BXNBayana Junction (3)X  07:00-07:05-5m--2686.799198mWCRBayana, Rajasthan
32HANHindaun City (2)  07:25-07:27-2m--2719.668230mWCRKarauli, Rajasthan
33SMBJShri Mahabirji (3)X  07:36-07:38-2m--2729.876240mWCRKarauli, Rajasthan
34GGCGangapur City (3)  08:05-08:10-5m--2763.877270mWCRGangapur, Rajasthan
35SWMSawai Madhopur Junction (4)  09:00-09:05-5m--2827.891266mWCRSawai Madhopur, Rajasthan
36IDGIndargarh Sumerganj Mandi (2)  09:32 09:29-09:33 09:31-1 2m--2864.055247mWCRIndargarh, Rajasthan
37LKELakheri (3)X  09:46 09:43-09:47 09:45-1 2m--2875.056228mWCRBundi, Rajasthan
38KOTAKota Junction (5)X  10:50-10:55-5m22935.643256mWCRKota, Rajasthan
39DKNTDakaniya Talav (2)  11:08-11:10-2m22944.974278mWCRKota, Rajasthan
40MKXMorak (2)X  11:53-11:55-2m--2997.849337mWCRMorak, Rajasthan
41RMARamganj Mandi Junction (3)  12:06-12:08-2m--21006.862358mWCRRamganj Mandi, Rajasthan
42JHWJhalawar Road (3)X  12:20-12:22-2m--21019.271361mWCRJhalawar City, Rajasthan
43BWMBhawani Mandi (3)X  12:36-12:38-2m--21035.776384mWCRBhawani Mandi, Madhya Pradesh
44GOHGaroth (2)X  12:56-12:58-2m121058.354441mWCRMadhya Pradesh 458880, Madhya Pradesh
45SGZShamgarh (3)  13:10-13:15-5m--21069.262463mWCRMandsaur, Madhya Pradesh
46SVASuwasra (2)  13:28-13:30-2m--21082.651450mWCRSuwasra, Madhya Pradesh
47CMUChau Mahla (3)  13:43 13:48-13:45 13:50-2m121098.025426mWCRJhalawar, Rajasthan
48VMAVikramgarh Alot (2)X  14:43-14:45-2m121119.843443mWCRKota Division, Madhya Pradesh
49MEPMahidpur Road  15:18-15:20-2m--21143.741493mWCRGogapur, Madhya Pradesh
50NADNagda Junction (4)X  15:45-15:47-2m--21160.864468mWRNagda, Madhya Pradesh
51KUHKhachrod (2)  15:58 16:00-16:00 16:02-2m--21174.659497mWRUjjain, Madhya Pradesh
52RTMRatlam Junction (7)  16:30-16:50-20m421202.271495mWRRatlam, Madhya Pradesh
53BMIBamnia (2)  17:25 17:28-17:27 17:30-2m--21246.976392mWRBamnia, Madhya Pradesh
54MGNMeghnagar (3)  17:55 17:58-17:57 18:00-2m--21282.583317mWRJhabua, Madhya Pradesh
55DHDDahod (3)  18:20 18:24-18:22 18:26-2m221315.649313mWRDahod, Gujarat
56GDAGodhra Junction (3)X  19:55-19:57-2m--21388.776122mWRGodhra, Gujarat
57BRCVadodara Junction (7)X  20:55-21:05-10m121462.68936mWRVadodara 390005, Gujarat
58AKVAnkleshwar Junction (4)X  21:59-22:01-2m221542.43619mWRAnkleshwar, Gujarat
59STSurat (4)  23:25-23:30-5m221592.46219mWRSurat 395001, Gujarat
60BLValsad (3)X  00:36-00:37-1m331661.17915mWRValsad, Gujarat
61VAPIVapi (3)X  00:57-00:59-2m231687.36827mWRVapi, Gujarat
62BORBoisar (3)X  02:01-02:03-2m331757.64517mWRBoisar Tel.no-02525-266626, Maharashtra
63BVIMumbai Borivali (8)  03:35-03:40-5m631825.83419mWRMumbai - 400092, Maharashtra
64ADHMumbai Andheri (9)O  04:02-04:04-2m--31838.41212mWRMumbai, Maharashtra
65BDTSMumbai Bandra Terminus (5)•  04:35--231844.6-4mWRMumbai 400050, Maharashtra
Scroll to Top
Scroll to Bottom